カタログに戻る

TITAN 3C TRANSTAGE DEB

LostHEO
NORAD 28551·DEBRIS·🇺🇸 United States

打ち上げ Dec 21, 1965 から Cape Canaveral Space Force Station

Loading…

次のパス (今後24時間)

TLE

古いSource: Space-Track

元期: Jan 13, 2026, 10:34 UTC

1 28551U 65108BS  26013.44092678  .00000029  00000-0  43606-3 0  9996
2 28551  27.1101 317.2964 5967277 171.2314 207.6937  3.90380524 50710

AllMySatでTITAN 3C TRANSTAGE DEBをリアルタイム追跡

Download on the App Store